[[{"header":{"parameterUnit":"m.s-1","parameterCategory":1,"la1":30.2991,"la2":30.254,"lo1":-89.0895,"lo2":-89.0444,"dy":0.0017,"dx":0.0017,"nx":28,"ny":28,"refTime":"2025-07-28T09:00:00:Z","depth":0,"parameterNumber":2,"parameterNumberName":"U-component_of_WINDS"},"data":[0,0,0,0,0,0,0,0,0,0,0,0,0,0,0,0,0,0,0,0,0,0,0,0,0,0,0,0,0,0,0,0,0,0,0,0,0,0,0,0,0,0,0,0,0,0,0,0,0,0,0,0,0,0,0,0,0,0,1.7704,1.7704,0,1.7786,1.7787,1.7788,1.7796,1.7795,1.7794,1.7793,1.7882,1.7885,1.7888,0,0,0,0,0,0,0,0,0,0,0,0,0,1.7559,1.7561,1.7703,1.7705,1.7706,1.7786,1.7787,1.7788,1.7796,1.7795,1.7794,1.7793,1.7881,1.7885,1.7888,0,0,0,0,0,0,0,0,0,0,0,0,0,1.763,1.7562,1.7703,1.7719,1.7721,1.7786,1.7787,1.7788,1.7796,1.7795,1.7793,1.7792,1.788,1.7884,1.7889,1.7945,0,0,1.7903,1.7906,0,0,0,0,0,0,0,0,1.7626,1.7635,1.7716,1.7718,1.7721,1.7779,1.7769,1.7841,1.7796,1.7768,1.7793,1.7791,1.7849,1.7856,1.7875,1.7949,1.7953,1.7904,1.7907,1.7909,1.791,0,0,0,0,0,0,0,1.7621,1.7631,1.7736,1.7717,1.772,1.7724,1.7732,1.7782,1.7815,1.777,1.7771,1.778,1.785,1.787,1.7877,1.7954,1.7904,1.7908,1.7911,1.7913,1.8083,1.8084,0,0,0,0,0,0,1.7612,1.7627,1.7734,1.7739,1.7669,1.7728,1.7737,1.7762,1.7814,1.7821,1.7781,1.778,1.7863,1.7871,1.788,1.7952,1.7909,1.7913,1.7916,1.8081,1.8083,1.8085,0,0,0,0,0,0,1.7609,1.7621,1.773,1.7683,1.7697,1.7731,1.7759,1.7764,1.7784,1.7823,1.7829,1.7795,1.7862,1.7873,1.7929,1.7955,1.7915,1.792,1.8079,1.8082,1.8084,1.8094,0,0,0,0,0,0,1.7605,1.762,1.764,1.7684,1.77,1.7776,1.776,1.7767,1.7792,1.7791,1.7838,1.7844,1.7862,1.7922,1.7934,1.7961,1.7923,1.8077,1.808,1.8083,1.8091,1.8096,1.81,0,0,0,0,0,1.7599,1.764,1.7641,1.7654,1.7725,1.7778,1.7787,1.7805,1.7793,1.7815,1.7841,1.7843,1.795,1.7928,1.7941,1.797,1.8076,1.8079,1.8083,1.8089,1.8095,1.81,0,0,0,0,0,0,1.7599,1.7645,1.7648,1.7702,1.7736,1.7779,1.7806,1.7811,1.7849,1.7847,1.7869,1.788,1.7936,1.7958,1.7933,1.8029,1.8012,1.8018,1.8012,1.8018,1.8022,1.8017,1.7927,0,0,0,0,0,1.7605,1.7642,1.7681,1.7726,1.7743,1.7772,1.7795,1.7807,1.7843,1.7857,1.7887,1.7923,1.7966,1.7993,1.8033,1.8094,1.8107,1.8121,1.8126,1.8129,1.8135,1.8173,1.8181,1.8097,1.8097,1.8097,0,0,1.7618,1.7648,1.767,1.7727,1.7754,1.7795,1.7784,1.7826,1.7857,1.7864,1.7919,1.7942,1.7985,1.8044,1.8072,1.8065,1.8161,1.8134,1.8136,1.8141,1.8177,1.8185,1.8192,1.81,1.8099,1.8099,0,0,1.7663,1.7688,1.773,1.7758,1.7799,1.7819,1.7829,1.7872,1.7887,1.7943,1.795,1.7988,1.8059,1.8091,1.8116,1.8176,1.818,1.8189,1.8213,1.8249,1.8256,1.8262,1.8286,1.8294,1.8194,1.8194,1.8194,0,1.7675,1.7734,1.7751,1.7794,1.782,1.7828,1.7873,1.7899,1.7952,1.7971,1.7962,1.8054,1.8083,1.8152,1.8167,1.8186,1.8201,1.8184,1.8253,1.8259,1.8265,1.8289,1.8298,1.8195,1.8195,1.8195,1.8195,0,1.7748,1.7789,1.7818,1.7869,1.7898,1.7941,1.7968,1.7996,1.8006,1.8027,1.8085,1.8121,1.817,1.8187,1.8197,1.8259,1.8253,1.8248,1.8232,1.8274,1.8297,1.8305,1.8196,1.8196,1.8196,1.8196,0,0,1.7794,1.7855,1.7866,1.7891,1.7938,1.7971,1.8017,1.8064,1.809,1.8127,1.8167,1.8229,1.8225,1.8254,1.8268,1.8299,1.8349,1.8291,1.8293,1.8303,1.8423,1.8427,1.8437,1.8351,1.8353,1.8355,1.842,0,1.7846,1.7925,1.7943,1.8012,1.8053,1.8062,1.8102,1.8137,1.8159,1.8198,1.8223,1.8267,1.8258,1.8276,1.8308,1.8336,1.8373,1.8331,1.8392,1.8394,1.8383,1.8448,1.8453,1.8513,1.8429,1.843,1.8431,0,1.7917,1.7956,1.8028,1.8074,1.8091,1.8127,1.8174,1.821,1.8251,1.8265,1.8299,1.831,1.836,1.8341,1.8413,1.8384,1.841,1.8428,1.8431,1.8439,1.8416,1.846,1.8532,1.8542,1.8445,1.8444,1.8443,0,1.7947,1.8017,1.807,1.8091,1.8144,1.8169,1.8193,1.8233,1.8262,1.8304,1.8323,1.837,1.8397,1.8435,1.846,1.8443,1.8531,1.8512,1.8546,1.8546,1.8565,1.8564,1.8644,1.8579,1.8579,1.8579,1.8578,0,1.8004,1.8049,1.8085,1.8118,1.8169,1.8191,1.8243,1.8267,1.8303,1.8343,1.8354,1.8392,1.8422,1.8465,1.8485,1.8543,1.8554,1.8569,1.8574,1.8569,1.8568,1.8588,1.8585,1.8581,1.858,1.858,1.858,0,1.8046,1.8071,1.8131,1.8177,1.819,1.8226,1.8267,1.8301,1.8324,1.8374,1.8388,1.8424,1.8475,1.8504,1.8568,1.8582,1.8648,1.865,1.8633,1.8636,1.8669,1.8667,1.8767,1.8782,1.8705,1.8705,1.8706,0,1.8081,1.8116,1.8166,1.8194,1.8218,1.8261,1.8291,1.8315,1.8346,1.8397,1.8426,1.8478,1.852,1.8602,1.8636,1.8686,1.8691,1.8723,1.8699,1.8694,1.8695,1.8693,1.8698,1.8727,1.8728,1.8729,1.8729,0,1.8143,1.8154,1.8195,1.8243,1.8278,1.8316,1.8354,1.8376,1.8407,1.8442,1.8494,1.8527,1.8593,1.8646,1.8699,1.8726,1.8735,1.8736,1.8747,1.8743,1.8734,1.8742,1.8647,1.8734,1.8734,1.8733,1.8733,1.8733,1.8184,1.8217,1.8258,1.8305,1.8336,1.8372,1.8407,1.8435,1.8478,1.8534,1.8546,1.8602,1.8646,1.8719,1.8747,1.8793,1.8788,1.8803,1.8807,1.8811,1.8814,1.8725,1.8803,1.8803,1.8803,1.8803,1.8803,0,1.8248,1.8276,1.8319,1.8372,1.841,1.8412,1.8456,1.8488,1.8536,1.8576,1.8618,1.868,1.8732,1.877,1.8824,1.8854,1.8859,1.8867,1.8866,1.8873,1.8814,1.88,1.8862,1.8862,1.8862,1.8862,1.8862,1.8862,1.8286,1.8343,1.836,1.8433,1.8461,1.8515,1.854,1.8575,1.8607,1.8675,1.8718,1.8742,1.8783,1.884,1.8889,1.8899,1.8919,1.8928,1.8939,1.8883,1.8877,1.8871,1.8858,1.8931,1.8931,1.8994,1.8995,1.8995]},{"header":{"parameterUnit":"m.s-1","parameterCategory":1,"la1":30.2991,"la2":30.254,"lo1":-89.0895,"lo2":-89.0444,"dy":0.0017,"dx":0.0017,"nx":28,"ny":28,"refTime":"2025-07-28T09:00:00:Z","depth":0,"parameterNumber":3,"parameterNumberName":"V-component_of_WINDS"},"data":[0,0,0,0,0,0,0,0,0,0,0,0,0,0,0,0,0,0,0,0,0,0,0,0,0,0,0,0,0,0,0,0,0,0,0,0,0,0,0,0,0,0,0,0,0,0,0,0,0,0,0,0,0,0,0,0,0,0,-1.031,-1.0308,0,-1.015,-1.0148,-1.0146,-1.0189,-1.0192,-1.0195,-1.0198,-1.0026,-1.0019,-1.0011,0,0,0,0,0,0,0,0,0,0,0,0,0,-1.0648,-1.0641,-1.031,-1.0308,-1.0306,-1.015,-1.0148,-1.0145,-1.0188,-1.0192,-1.0196,-1.02,-1.0029,-1.002,-1.0011,0,0,0,0,0,0,0,0,0,0,0,0,0,-1.0495,-1.0639,-1.0311,-1.0309,-1.0307,-1.015,-1.0148,-1.0145,-1.0187,-1.0192,-1.0197,-1.0202,-1.0032,-1.0021,-1.001,-0.9842,0,0,-0.9975,-0.997,0,0,0,0,0,0,0,0,-1.0504,-1.0483,-1.0311,-1.0309,-1.0307,-1.0194,-1.0204,-1.0043,-1.0186,-1.0233,-1.0198,-1.0204,-1.0078,-1.0063,-1.0022,-0.9834,-0.9827,-0.9974,-0.9967,-0.9962,-0.9959,0,0,0,0,0,0,0,-1.0514,-1.049,-1.0246,-1.0309,-1.0306,-1.0314,-1.0298,-1.0173,-1.013,-1.0229,-1.0232,-1.0212,-1.0077,-1.0033,-1.0018,-0.9824,-0.9974,-0.9964,-0.9957,-0.9952,-0.9491,-0.9485,0,0,0,0,0,0,-1.0528,-1.0498,-1.0252,-1.0242,-1.0419,-1.0304,-1.0286,-1.0225,-1.0131,-1.0122,-1.0209,-1.0215,-1.005,-1.0031,-1.0012,-0.981,-0.9962,-0.9951,-0.9945,-0.9496,-0.9489,-0.9484,0,0,0,0,0,0,-1.0535,-1.0505,-1.0258,-1.0371,-1.034,-1.0293,-1.0225,-1.022,-1.0175,-1.0116,-1.0108,-1.0171,-1.0053,-1.0028,-0.9885,-0.9804,-0.9946,-0.9936,-0.9502,-0.9494,-0.9486,-0.9404,0,0,0,0,0,0,-1.0544,-1.0508,-1.0445,-1.0369,-1.0334,-1.0135,-1.022,-1.0213,-1.0156,-1.0163,-1.0079,-1.0069,-1.0055,-0.9901,-0.9873,-0.9791,-0.9927,-0.9509,-0.9499,-0.9489,-0.9413,-0.9394,-0.9377,0,0,0,0,0,-1.0556,-1.0426,-1.0441,-1.0411,-1.0255,-1.013,-1.011,-1.0098,-1.015,-1.0085,-1.0047,-1.0072,-0.9818,-0.9886,-0.9855,-0.9768,-0.9514,-0.9502,-0.949,-0.9421,-0.9397,-0.9377,0,0,0,0,0,0,-1.0491,-1.0416,-1.0432,-1.0275,-1.0209,-1.0138,-1.0056,-1.0073,-0.9988,-0.9998,-0.9985,-0.9965,-0.9818,-0.9779,-0.9856,-0.9601,-0.9673,-0.9654,-0.9632,-0.9609,-0.9591,-0.9603,-0.9917,0,0,0,0,0,-1.0459,-1.0366,-1.0305,-1.0171,-1.0138,-1.0103,-1.0048,-1.0044,-0.9974,-0.9946,-0.9898,-0.9827,-0.9731,-0.9668,-0.9577,-0.9409,-0.939,-0.9333,-0.9315,-0.9301,-0.9284,-0.9191,-0.9165,-0.9443,-0.9443,-0.9444,0,0,-1.039,-1.0338,-1.0279,-1.0157,-1.0106,-1.0007,-1.0078,-0.9972,-0.9898,-0.9929,-0.9791,-0.9753,-0.9673,-0.9516,-0.9445,-0.9479,-0.9203,-0.9285,-0.9274,-0.9265,-0.9176,-0.915,-0.9126,-0.9435,-0.9437,-0.9438,0,0,-1.0215,-1.0167,-1.0051,-0.9998,-0.992,-0.9898,-0.987,-0.9796,-0.9773,-0.9635,-0.9656,-0.9568,-0.9403,-0.9346,-0.9295,-0.9099,-0.9118,-0.9069,-0.8973,-0.8884,-0.8862,-0.8842,-0.8771,-0.8746,-0.9053,-0.9053,-0.9053,0,-1.0138,-0.9994,-0.9988,-0.9879,-0.9824,-0.9851,-0.9732,-0.968,-0.9575,-0.9536,-0.9577,-0.9372,-0.9319,-0.9149,-0.9102,-0.906,-0.9026,-0.9078,-0.8866,-0.8846,-0.8828,-0.876,-0.8733,-0.9047,-0.9048,-0.9049,-0.9049,0,-0.9904,-0.9803,-0.9718,-0.9619,-0.9555,-0.9441,-0.9416,-0.9351,-0.9354,-0.9326,-0.9185,-0.9124,-0.9021,-0.898,-0.8981,-0.881,-0.8834,-0.887,-0.8942,-0.8796,-0.8732,-0.8706,-0.904,-0.9042,-0.9043,-0.9045,0,0,-0.9681,-0.9582,-0.9551,-0.9506,-0.9423,-0.9344,-0.9231,-0.9133,-0.9077,-0.9004,-0.8908,-0.8769,-0.8803,-0.8745,-0.8739,-0.8661,-0.8509,-0.8707,-0.8705,-0.8671,-0.8315,-0.8288,-0.8258,-0.8522,-0.8517,-0.8513,-0.8322,0,-0.9498,-0.9303,-0.9294,-0.9115,-0.9021,-0.9046,-0.8947,-0.8885,-0.8856,-0.8771,-0.8739,-0.8641,-0.8693,-0.8658,-0.8582,-0.8543,-0.8437,-0.8557,-0.843,-0.8426,-0.8448,-0.8224,-0.8194,-0.8017,-0.8297,-0.8293,-0.829,0,-0.9258,-0.918,-0.8993,-0.8924,-0.8884,-0.8796,-0.8705,-0.8624,-0.8553,-0.8538,-0.8474,-0.848,-0.8363,-0.8441,-0.8278,-0.836,-0.8308,-0.8281,-0.8274,-0.826,-0.8348,-0.8203,-0.796,-0.7933,-0.825,-0.8253,-0.8256,0,-0.9113,-0.8961,-0.883,-0.8791,-0.8707,-0.8645,-0.8606,-0.8541,-0.8482,-0.8402,-0.8364,-0.8271,-0.8219,-0.8146,-0.8126,-0.8184,-0.7963,-0.8039,-0.7945,-0.7946,-0.7896,-0.7899,-0.764,-0.7865,-0.7865,-0.7866,-0.7866,0,-0.8908,-0.8792,-0.8764,-0.8682,-0.8553,-0.8544,-0.8415,-0.838,-0.8322,-0.8233,-0.8248,-0.8163,-0.8143,-0.8054,-0.8037,-0.7905,-0.7881,-0.7864,-0.7861,-0.7862,-0.7864,-0.7826,-0.7838,-0.7858,-0.786,-0.7861,-0.7863,0,-0.8724,-0.87,-0.8558,-0.8492,-0.8472,-0.8379,-0.8321,-0.8242,-0.8217,-0.8104,-0.8077,-0.8036,-0.7932,-0.7906,-0.7781,-0.777,-0.7613,-0.7622,-0.7638,-0.7638,-0.7545,-0.7554,-0.7251,-0.721,-0.7463,-0.7461,-0.7459,0,-0.8594,-0.8506,-0.8431,-0.8373,-0.8333,-0.824,-0.8182,-0.8169,-0.8107,-0.802,-0.7951,-0.785,-0.7768,-0.7601,-0.7559,-0.7463,-0.7469,-0.737,-0.7455,-0.7459,-0.7466,-0.7471,-0.7462,-0.7353,-0.735,-0.7348,-0.7346,0,-0.8366,-0.8359,-0.8276,-0.8187,-0.8118,-0.8047,-0.7979,-0.7931,-0.7908,-0.7837,-0.7733,-0.767,-0.7545,-0.7443,-0.7347,-0.7306,-0.7321,-0.7321,-0.7294,-0.7293,-0.7305,-0.7296,-0.7592,-0.7327,-0.7329,-0.733,-0.7331,-0.7332,-0.8204,-0.8127,-0.8062,-0.7968,-0.7917,-0.7853,-0.7776,-0.7742,-0.7656,-0.7554,-0.7552,-0.7438,-0.7369,-0.7242,-0.7195,-0.7105,-0.7134,-0.7096,-0.7085,-0.7076,-0.7067,-0.7321,-0.7087,-0.7088,-0.7088,-0.7089,-0.7089,0,-0.7976,-0.7936,-0.785,-0.7756,-0.7682,-0.7707,-0.7633,-0.7568,-0.7469,-0.7405,-0.7325,-0.7205,-0.7107,-0.7058,-0.696,-0.6897,-0.6901,-0.6872,-0.6875,-0.6865,-0.7047,-0.7079,-0.687,-0.687,-0.687,-0.687,-0.687,-0.687,-0.7848,-0.7719,-0.7704,-0.7549,-0.751,-0.74,-0.7356,-0.7297,-0.7246,-0.7112,-0.7032,-0.7002,-0.6943,-0.6841,-0.6752,-0.674,-0.6703,-0.6669,-0.666,-0.683,-0.6852,-0.6874,-0.6904,-0.6661,-0.6661,-0.6486,-0.6484,-0.6483]}]]